Location: Unspecified
(33.6682°S, 0.0000°E)
Time: 17:18:05
(UTC+00:00)

Vanguard 2 Rocket - Pass Details

Date: 24 June 2019
Orbit: 554 x 3326 km, 32.9° (Epoch: 21 July)

Event Time Altitude Azimuth Distance (km) Brightness Sun altitude
Rises 06:54:22 0° 313° (NW) 7,293 11.3 -2.8°
Reaches altitude 10° 06:59:42 10° 317° (NW) 6,170 11.0 -1.8°
Maximum altitude 07:17:23 51° 25° (NNE) 2,991 10.1 1.4°
Drops below altitude 10° 07:28:43 10° 96° (E) 4,104 11.2 3.5°
Sets 07:31:28 0° 101° (ESE) 4,782 11.4 4.0°
